アトラス彗星

C/2020 H6 ( ATLAS )

English version
Home page
Updated on June 29, 2020

---------------------------------------------------------------------

・ プロフィール

発見日 2020年4月22日
発見光度 18.1等
発見者 James Robinson (Asteroid Terrestrial-Impact Last Alert System (ATLAS) search program)

・ 軌道要素

Epoch 2021 Sept. 23.0 TT = JDT 2459480.5
T 2021 Oct. 1.01480 TT                                  Rudenko
q   4.7032009            (2000.0)            P               Q
z  -0.0002273      Peri.   20.34125     -0.74645602     +0.37978781
 +/-0.0000642      Node   213.70305     -0.65971444     -0.31493105
e   1.0010691      Incl.   79.97146     +0.08706479     +0.86981587
From 88 observations 2020 Apr. 22-June 16, mean residual 0".4.

・ 星図

・ 光度変化

        m1 = 7.0 + 5 logΔ + 10.0 log r

---------------------------------------------------------------------

軌道要素はM.P.E.C. 2020-M114に掲載されたものです。
星図はステラナビゲータ Ver.10 (アストロアーツ) で作成したものです。
光度グラフはComet for Windowsで作成したものです。

---------------------------------------------------------------------

Copyright(C) Seiichi Yoshida (comet@aerith.net). All rights reserved.